Location: Gull Harbor
(47.1000°N, 122.9000°W)
Time: 22:49:07
(UTC-07:00)

ISS - Pass Details

Date: 31 March 2019
Orbit: 408 x 410 km, 51.6° (Epoch: 24 April)

Event Time Altitude Azimuth Distance (km) Brightness Sun altitude
Rises 21:17:22 0° 292° (WNW) 2,340 1.8 -16.7°
Reaches altitude 10° 21:19:31 10° 299° (WNW) 1,476 0.3 -17.0°
Maximum altitude 21:22:43 47° 15° (NNE) 553 -3.1 -17.5°
Enters shadow 21:23:31 38° 57° (ENE) 646 -3.1 -17.6°
